User: anonymous   Login
Location: Acton
(51.4942°N, 0.2232°W)
Time: 03:29:25
(UTC+00:00)
Language:

MOS 1 Rocket - Orbit

View from above orbital plane
View from above orbital plane
View from above satellite
View from above satellite

Ground track
Ground track

The orbit data is extracted from the following two-line orbital elements,

1 17528U 87018B   20338.14101487  .00000132  00000-0  38745-4 0  9996
2 17528  97.4004 167.4342 0150477 294.0137  64.5372 14.51013749762687
Epoch (UTC): 03 December 2020 03:23:03
Eccentricity: 0.0150477
inclination: 97.4004°
perigee height: 615 km
apogee height: 829 km
right ascension of ascending node: 167.4342°
argument of perigee: 294.0137°
revolutions per day: 14.51013749
mean anomaly at epoch: 64.5372°
orbit number at epoch: 76268

The dashed part of the orbit path shows where the satellite is in the earth's shadow,  

DLR